Time,TemperatureF,DewpointF,PressureIn,WindDirection,WindDirectionDegrees,WindSpeedMPH,WindSpeedGustMPH,Humidity,HourlyPrecipIn,Conditions,Clouds,dailyrainin,SolarRadiationWatts/m^2,SoftwareType,DateUTC
2013-06-09 00:02:00,59.1,51.0,29.80,SSW,202,0.0,7.0,75,0.00,,,0.00,0,weatherlink.com 1.10,2013-06-09 05:02:00,
2013-06-09 00:17:00,58.5,51.0,29.80,West,265,0.0,4.0,75,0.00,,,0.00,0,weatherlink.com 1.10,2013-06-09 05:17:00,
2013-06-09 00:32:00,58.6,50.0,29.81,West,271,0.0,0.0,74,0.00,,,0.00,0,weatherlink.com 1.10,2013-06-09 05:32:00,
2013-06-09 00:47:00,56.6,50.0,29.82,WSW,238,2.0,7.0,78,0.00,,,0.00,0,weatherlink.com 1.10,2013-06-09 05:47:00,
2013-06-09 01:02:00,57.1,50.0,29.82,WSW,253,0.0,1.0,78,0.00,,,0.00,0,weatherlink.com 1.10,2013-06-09 06:02:00,
2013-06-09 01:17:00,57.3,51.0,29.82,West,280,0.0,5.0,79,0.00,,,0.00,0,weatherlink.com 1.10,2013-06-09 06:17:00,
2013-06-09 01:32:00,56.8,50.0,29.82,West,271,0.0,0.0,78,0.00,,,0.00,0,weatherlink.com 1.10,2013-06-09 06:32:00,
2013-06-09 01:47:00,55.9,50.0,29.81,WSW,251,0.0,1.0,80,0.00,,,0.00,0,weatherlink.com 1.10,2013-06-09 06:47:00,
2013-06-09 02:02:00,56.4,49.0,29.81,West,280,0.0,0.0,77,0.00,,,0.00,0,weatherlink.com 1.10,2013-06-09 07:02:00,
2013-06-09 02:17:00,55.7,49.0,29.82,West,270,0.0,4.0,79,0.00,,,0.00,0,weatherlink.com 1.10,2013-06-09 07:17:00,
2013-06-09 02:32:00,56.4,50.0,29.81,West,272,0.0,0.0,78,0.00,,,0.00,0,weatherlink.com 1.10,2013-06-09 07:32:00,
2013-06-09 02:47:00,57.3,49.0,29.82,WSW,248,0.0,6.0,75,0.00,,,0.00,0,weatherlink.com 1.10,2013-06-09 07:47:00,
2013-06-09 03:02:00,57.3,49.0,29.82,West,271,0.0,4.0,74,0.00,,,0.00,0,weatherlink.com 1.10,2013-06-09 08:02:00,
2013-06-09 03:17:00,55.8,49.0,29.81,WSW,249,0.0,2.0,78,0.00,,,0.00,0,weatherlink.com 1.10,2013-06-09 08:17:00,
2013-06-09 03:32:00,56.2,49.0,29.82,West,262,0.0,3.0,78,0.00,,,0.00,0,weatherlink.com 1.10,2013-06-09 08:32:00,
2013-06-09 03:47:00,56.7,49.0,29.82,WSW,254,0.0,7.0,76,0.00,,,0.00,0,weatherlink.com 1.10,2013-06-09 08:47:00,
2013-06-09 04:02:00,56.8,49.0,29.82,WSW,242,4.0,7.0,75,0.00,,,0.00,0,weatherlink.com 1.10,2013-06-09 09:02:00,
2013-06-09 04:17:00,57.3,49.0,29.82,West,263,4.0,8.0,73,0.00,,,0.00,0,weatherlink.com 1.10,2013-06-09 09:17:00,
2013-06-09 04:32:00,56.8,49.0,29.82,West,278,6.0,8.0,74,0.00,,,0.00,0,weatherlink.com 1.10,2013-06-09 09:32:00,
2013-06-09 04:47:00,56.9,48.0,29.82,West,267,5.0,9.0,73,0.00,,,0.00,0,weatherlink.com 1.10,2013-06-09 09:47:00,
2013-06-09 05:03:00,56.4,49.0,29.82,West,259,4.0,7.0,77,0.00,,,0.00,0,weatherlink.com 1.10,2013-06-09 10:03:00,
2013-06-09 05:18:00,56.0,49.0,29.82,WSW,240,4.0,7.0,77,0.00,,,0.00,0,weatherlink.com 1.10,2013-06-09 10:18:00,
2013-06-09 05:33:00,56.0,49.0,29.82,WNW,286,3.0,6.0,78,0.00,,,0.00,0,weatherlink.com 1.10,2013-06-09 10:33:00,
2013-06-09 05:48:00,55.8,49.0,29.82,WSW,240,1.0,8.0,78,0.00,,,0.00,0,weatherlink.com 1.10,2013-06-09 10:48:00,
2013-06-09 06:03:00,55.7,49.0,29.83,WNW,286,3.0,7.0,79,0.00,,,0.00,0,weatherlink.com 1.10,2013-06-09 11:03:00,
2013-06-09 06:18:00,55.2,49.0,29.83,West,273,4.0,8.0,80,0.00,,,0.00,5,weatherlink.com 1.10,2013-06-09 11:18:00,
2013-06-09 06:33:00,55.2,49.0,29.84,West,273,3.0,8.0,80,0.00,,,0.00,12,weatherlink.com 1.10,2013-06-09 11:33:00,
2013-06-09 06:48:00,54.6,49.0,29.84,West,277,0.0,6.0,82,0.00,,,0.00,23,weatherlink.com 1.10,2013-06-09 11:48:00,
2013-06-09 07:03:00,55.3,50.0,29.84,West,278,7.0,10.0,81,0.00,,,0.00,53,weatherlink.com 1.10,2013-06-09 12:03:00,
2013-06-09 07:18:00,56.7,50.0,29.84,West,277,0.0,4.0,79,0.00,,,0.00,121,weatherlink.com 1.10,2013-06-09 12:18:00,
2013-06-09 07:33:00,59.0,51.0,29.84,West,272,5.0,8.0,75,0.00,,,0.00,171,weatherlink.com 1.10,2013-06-09 12:33:00,
2013-06-09 07:48:00,60.7,52.0,29.85,WNW,284,0.0,5.0,74,0.00,,,0.00,211,weatherlink.com 1.10,2013-06-09 12:48:00,
2013-06-09 08:03:00,61.8,53.0,29.85,WNW,294,0.0,6.0,73,0.00,,,0.00,251,weatherlink.com 1.10,2013-06-09 13:03:00,
2013-06-09 08:18:00,62.5,53.0,29.86,NW,306,0.0,0.0,71,0.00,,,0.00,288,weatherlink.com 1.10,2013-06-09 13:18:00,
2013-06-09 08:33:00,63.9,54.0,29.85,NNW,327,0.0,8.0,70,0.00,,,0.00,334,weatherlink.com 1.10,2013-06-09 13:33:00,
2013-06-09 08:48:00,64.7,53.0,29.85,WSW,256,8.0,9.0,67,0.00,,,0.00,380,weatherlink.com 1.10,2013-06-09 13:48:00,
2013-06-09 09:03:00,65.3,53.0,29.86,West,279,4.0,9.0,65,0.00,,,0.00,425,weatherlink.com 1.10,2013-06-09 14:03:00,
2013-06-09 09:18:00,66.1,52.0,29.86,West,281,6.0,12.0,61,0.00,,,0.00,473,weatherlink.com 1.10,2013-06-09 14:18:00,
2013-06-09 09:33:00,68.0,52.0,29.86,West,279,6.0,16.0,57,0.00,,,0.00,517,weatherlink.com 1.10,2013-06-09 14:33:00,
2013-06-09 09:49:00,69.0,52.0,29.86,West,271,7.0,13.0,55,0.00,,,0.00,561,weatherlink.com 1.10,2013-06-09 14:49:00,
2013-06-09 10:04:00,70.5,53.0,29.86,West,263,2.0,9.0,54,0.00,,,0.00,605,weatherlink.com 1.10,2013-06-09 15:04:00,
2013-06-09 10:19:00,71.2,53.0,29.86,WNW,286,1.0,9.0,52,0.00,,,0.00,643,weatherlink.com 1.10,2013-06-09 15:19:00,
2013-06-09 10:34:00,72.4,53.0,29.86,NNW,331,11.0,13.0,50,0.00,,,0.00,684,weatherlink.com 1.10,2013-06-09 15:34:00,
2013-06-09 10:49:00,73.7,54.0,29.86,West,275,4.0,12.0,50,0.00,,,0.00,719,weatherlink.com 1.10,2013-06-09 15:49:00,
2013-06-09 11:04:00,74.9,52.0,29.86,WNW,300,4.0,15.0,45,0.00,,,0.00,754,weatherlink.com 1.10,2013-06-09 16:04:00,
2013-06-09 11:19:00,75.5,52.0,29.86,West,265,1.0,12.0,44,0.00,,,0.00,788,weatherlink.com 1.10,2013-06-09 16:19:00,
2013-06-09 11:34:00,76.4,52.0,29.85,West,281,1.0,17.0,43,0.00,,,0.00,817,weatherlink.com 1.10,2013-06-09 16:34:00,
2013-06-09 11:49:00,77.8,52.0,29.85,NW,311,10.0,11.0,40,0.00,,,0.00,844,weatherlink.com 1.10,2013-06-09 16:49:00,
2013-06-09 12:04:00,78.4,51.0,29.85,West,271,9.0,12.0,39,0.00,,,0.00,867,weatherlink.com 1.10,2013-06-09 17:04:00,
2013-06-09 12:19:00,78.8,51.0,29.85,WNW,287,11.0,13.0,38,0.00,,,0.00,882,weatherlink.com 1.10,2013-06-09 17:19:00,
2013-06-09 12:34:00,79.1,48.0,29.85,WNW,302,0.0,12.0,34,0.00,,,0.00,907,weatherlink.com 1.10,2013-06-09 17:34:00,
2013-06-09 12:49:00,80.0,49.0,29.84,NW,306,0.0,13.0,34,0.00,,,0.00,921,weatherlink.com 1.10,2013-06-09 17:49:00,
2013-06-09 13:04:00,80.4,50.0,29.84,North,11,2.0,13.0,35,0.00,,,0.00,932,weatherlink.com 1.10,2013-06-09 18:04:00,
2013-06-09 13:19:00,81.2,49.0,29.84,West,279,6.0,14.0,33,0.00,,,0.00,940,weatherlink.com 1.10,2013-06-09 18:19:00,
2013-06-09 13:34:00,82.3,51.0,29.83,NNE,27,2.0,10.0,34,0.00,,,0.00,946,weatherlink.com 1.10,2013-06-09 18:34:00,
2013-06-09 13:49:00,81.3,49.0,29.82,NE,46,0.0,7.0,32,0.00,,,0.00,944,weatherlink.com 1.10,2013-06-09 18:49:00,
2013-06-09 14:04:00,82.5,49.0,29.82,NNE,26,1.0,11.0,31,0.00,,,0.00,942,weatherlink.com 1.10,2013-06-09 19:04:00,
2013-06-09 14:20:00,84.1,51.0,29.81,NW,307,2.0,7.0,32,0.00,,,0.00,940,weatherlink.com 1.10,2013-06-09 19:20:00,
2013-06-09 14:35:00,83.5,51.0,29.81,WNW,292,1.0,9.0,33,0.00,,,0.00,930,weatherlink.com 1.10,2013-06-09 19:35:00,
2013-06-09 14:50:00,83.0,49.0,29.80,NNE,13,3.0,13.0,30,0.00,,,0.00,916,weatherlink.com 1.10,2013-06-09 19:50:00,
2013-06-09 15:05:00,84.9,50.0,29.80,NW,311,0.0,9.0,30,0.00,,,0.00,902,weatherlink.com 1.10,2013-06-09 20:05:00,
2013-06-09 15:20:00,83.9,48.0,29.80,WNW,295,0.0,14.0,29,0.00,,,0.00,882,weatherlink.com 1.10,2013-06-09 20:20:00,
2013-06-09 15:35:00,85.2,47.0,29.79,West,269,0.0,15.0,26,0.00,,,0.00,861,weatherlink.com 1.10,2013-06-09 20:35:00,
2013-06-09 15:50:00,85.0,47.0,29.79,NNW,332,0.0,4.0,27,0.00,,,0.00,840,weatherlink.com 1.10,2013-06-09 20:50:00,
2013-06-09 16:05:00,85.6,47.0,29.78,NNW,329,0.0,8.0,26,0.00,,,0.00,809,weatherlink.com 1.10,2013-06-09 21:05:00,
2013-06-09 16:20:00,85.3,47.0,29.77,NNW,331,0.0,13.0,26,0.00,,,0.00,777,weatherlink.com 1.10,2013-06-09 21:20:00,
2013-06-09 16:35:00,86.2,47.0,29.77,NNW,339,2.0,8.0,26,0.00,,,0.00,745,weatherlink.com 1.10,2013-06-09 21:35:00,
2013-06-09 16:50:00,87.0,48.0,29.76,West,281,4.0,5.0,26,0.00,,,0.00,712,weatherlink.com 1.10,2013-06-09 21:50:00,
2013-06-09 17:05:00,87.7,50.0,29.76,WNW,291,0.0,10.0,27,0.00,,,0.00,670,weatherlink.com 1.10,2013-06-09 22:05:00,
2013-06-09 17:20:00,86.5,49.0,29.75,NNE,33,1.0,7.0,27,0.00,,,0.00,633,weatherlink.com 1.10,2013-06-09 22:20:00,
2013-06-09 17:35:00,86.8,48.0,29.75,WNW,297,6.0,10.0,26,0.00,,,0.00,592,weatherlink.com 1.10,2013-06-09 22:35:00,
2013-06-09 17:50:00,86.9,48.0,29.75,WNW,302,1.0,8.0,26,0.00,,,0.00,548,weatherlink.com 1.10,2013-06-09 22:50:00,
2013-06-09 18:05:00,86.3,48.0,29.75,NNE,30,1.0,7.0,26,0.00,,,0.00,455,weatherlink.com 1.10,2013-06-09 23:05:00,
2013-06-09 18:20:00,87.1,49.0,29.74,NNE,32,4.0,6.0,27,0.00,,,0.00,457,weatherlink.com 1.10,2013-06-09 23:20:00,
2013-06-09 18:35:00,86.2,49.0,29.74,ENE,64,3.0,7.0,28,0.00,,,0.00,411,weatherlink.com 1.10,2013-06-09 23:35:00,
2013-06-09 18:50:00,85.6,50.0,29.74,ENE,57,2.0,6.0,29,0.00,,,0.00,364,weatherlink.com 1.10,2013-06-09 23:50:00,
2013-06-09 19:05:00,85.1,49.0,29.74,ENE,60,3.0,5.0,29,0.00,,,0.00,316,weatherlink.com 1.10,2013-06-10 00:05:00,
2013-06-09 19:20:00,84.8,50.0,29.74,NE,53,0.0,6.0,30,0.00,,,0.00,269,weatherlink.com 1.10,2013-06-10 00:20:00,
2013-06-09 19:35:00,83.9,50.0,29.74,NE,49,1.0,9.0,31,0.00,,,0.00,218,weatherlink.com 1.10,2013-06-10 00:35:00,
2013-06-09 19:50:00,83.2,50.0,29.73,ENE,66,2.0,4.0,31,0.00,,,0.00,165,weatherlink.com 1.10,2013-06-10 00:50:00,
2013-06-09 20:05:00,82.1,50.0,29.74,ENE,59,0.0,4.0,33,0.00,,,0.00,113,weatherlink.com 1.10,2013-06-10 01:05:00,
2013-06-09 20:20:00,81.0,51.0,29.73,ENE,63,0.0,8.0,35,0.00,,,0.00,69,weatherlink.com 1.10,2013-06-10 01:20:00,
2013-06-09 20:35:00,79.5,51.0,29.73,East,80,5.0,7.0,37,0.00,,,0.00,33,weatherlink.com 1.10,2013-06-10 01:35:00,
2013-06-09 20:50:00,77.6,51.0,29.73,ENE,72,3.0,7.0,39,0.00,,,0.00,12,weatherlink.com 1.10,2013-06-10 01:50:00,
2013-06-09 21:05:00,75.7,50.0,29.73,ENE,57,0.0,4.0,41,0.00,,,0.00,7,weatherlink.com 1.10,2013-06-10 02:05:00,
2013-06-09 21:20:00,74.1,50.0,29.73,ENE,70,4.0,8.0,43,0.00,,,0.00,0,weatherlink.com 1.10,2013-06-10 02:20:00,
2013-06-09 21:35:00,72.5,50.0,29.73,ENE,73,0.0,9.0,45,0.00,,,0.00,0,weatherlink.com 1.10,2013-06-10 02:35:00,
2013-06-09 21:50:00,71.6,49.0,29.74,East,82,5.0,8.0,45,0.00,,,0.00,0,weatherlink.com 1.10,2013-06-10 02:50:00,
2013-06-09 22:05:00,69.8,49.0,29.75,ESE,107,0.0,6.0,48,0.00,,,0.00,0,weatherlink.com 1.10,2013-06-10 03:05:00,
2013-06-09 22:20:00,68.3,49.0,29.76,East,80,3.0,6.0,50,0.00,,,0.00,0,weatherlink.com 1.10,2013-06-10 03:20:00,
2013-06-09 22:35:00,67.9,49.0,29.76,East,86,6.0,8.0,51,0.00,,,0.00,0,weatherlink.com 1.10,2013-06-10 03:35:00,
2013-06-09 22:50:00,67.4,48.0,29.77,East,101,3.0,9.0,51,0.00,,,0.00,0,weatherlink.com 1.10,2013-06-10 03:50:00,
2013-06-09 23:05:00,66.7,48.0,29.77,East,99,0.0,7.0,52,0.00,,,0.00,0,weatherlink.com 1.10,2013-06-10 04:05:00,
2013-06-09 23:20:00,65.4,48.0,29.78,East,94,0.0,0.0,54,0.00,,,0.00,0,weatherlink.com 1.10,2013-06-10 04:20:00,
2013-06-09 23:35:00,63.8,48.0,29.78,SE,126,0.0,0.0,57,0.00,,,0.00,0,weatherlink.com 1.10,2013-06-10 04:35:00,
2013-06-09 23:50:00,62.6,48.0,29.78,SE,134,0.0,0.0,59,0.00,,,0.00,0,weatherlink.com 1.10,2013-06-10 04:50:00,